Big Delta, AK

11:21 PM AKDT on April 26, 2017 (GMT -0800)
Allen Army Air Field

Weather History for PABI - March, 2013

Change the Weather History Date:

Sunday, March 31, 2013

  Actual Average Record
Temperature  
Mean Temperature 32 °F -  
Max Temperature 42 °F 28 °F 55 °F (2016)
Min Temperature 21 °F 6 °F -18 °F (2004)
Degree Days  
Heating Degree Days 34    
Moisture  
Dew Point 18 °F    
Average Humidity 58    
Maximum Humidity 78    
Minimum Humidity 29    
Precipitation  
Precipitation 0.00 in - - ()
Sea Level Pressure  
Sea Level Pressure 30.24 in    
Wind  
Wind Speed 3 mph (WNW)    
Max Wind Speed 9 mph    
Max Gust Speed -    
Visibility 10 miles    
Events      
Averages and records for this station are not official NWS values.
T = Trace of Precipitation, MM = Missing Value Source: NWS Daily Summary

Daily Weather History Graph

Daily Weather History Graph

Search for Another Location

Airport or City:

Trip Planner

Search our weather history database for the weather conditions in past years. The results will help you decide how hot, cold, wet, or windy it might be!

Date:

Astronomy

Mar. 31, 2013 Rise Set
Actual Time 7:03 AM AKDT 8:32 PM AKDT
Civil Twilight 6:13 AM AKDT 9:22 PM AKDT
Nautical Twilight 5:10 AM AKDT 10:26 PM AKDT
Astronomical Twilight 3:48 AM AKDT 11:50 PM AKDT
Moon 2:26 AM AKDT (3/31) 8:18 AM AKDT (3/31)
Length of Visible Light 15h 08m
Length of Day
13h 29m
Waning Gibbous, 76% of the Moon is Illuminated
Mar 31
Waning Gibbous
Apr 2
Last Quarter
Apr 10
New
Apr 18
First Quarter
Apr 25
Full

Hourly Weather History & Observations

Time (AKDT) Temp. Windchill Dew Point Humidity Pressure Visibility Wind Dir Wind Speed Gust Speed Precip Events Conditions
12:53 AM 27.0 °F 20.5 °F 18.0 °F 69% 30.25 in 10.0 mi SW 5.8 mph - N/A   Overcast
1:53 AM 27.0 °F 19.5 °F 16.0 °F 63% 30.25 in 10.0 mi WSW 6.9 mph - N/A   Overcast
2:53 AM 26.1 °F - 16.0 °F 66% 30.26 in 10.0 mi Calm Calm - N/A   Overcast
3:53 AM 28.0 °F - 16.0 °F 61% 30.26 in 10.0 mi Calm Calm - N/A   Overcast
4:53 AM 26.1 °F 20.5 °F 18.0 °F 71% 30.27 in 10.0 mi West 4.6 mph - N/A   Overcast
5:53 AM 25.0 °F 18.1 °F 18.0 °F 75% 30.27 in 10.0 mi SW 5.8 mph - N/A   Mostly Cloudy
6:53 AM 21.9 °F - 16.0 °F 78% 30.28 in 10.0 mi Calm Calm - N/A   Overcast
7:53 AM 21.9 °F 17.2 °F 15.1 °F 75% 30.29 in 10.0 mi East 3.5 mph - N/A   Overcast
8:53 AM 24.1 °F - 16.0 °F 71% 30.29 in 10.0 mi Calm Calm - N/A   Overcast
9:53 AM 27.0 °F - 17.1 °F 66% 30.29 in 10.0 mi Calm Calm - N/A   Mostly Cloudy
10:53 AM 28.9 °F - 16.0 °F 58% 30.29 in 10.0 mi Calm Calm - N/A   Mostly Cloudy
11:53 AM 34.0 °F - 16.0 °F 48% 30.28 in 10.0 mi Calm Calm - N/A   Mostly Cloudy
12:53 PM 36.0 °F - 16.0 °F 44% 30.27 in 10.0 mi Calm Calm - N/A   Mostly Cloudy
1:53 PM 37.0 °F - 18.0 °F 46% 30.26 in 10.0 mi Calm Calm - N/A   Mostly Cloudy
2:53 PM 37.9 °F - 18.0 °F 45% 30.24 in 10.0 mi Calm Calm - N/A   Mostly Cloudy
3:53 PM 39.0 °F - 18.0 °F 43% 30.22 in 10.0 mi Calm Calm - N/A   Mostly Cloudy
4:53 PM 37.9 °F 33.5 °F 19.0 °F 47% 30.21 in 10.0 mi North 5.8 mph - N/A   Mostly Cloudy
5:53 PM 37.9 °F 33.5 °F 18.0 °F 45% 30.20 in 10.0 mi NNW 5.8 mph - N/A   Mostly Cloudy
6:53 PM 36.0 °F 29.0 °F 21.0 °F 55% 30.20 in 10.0 mi North 9.2 mph - N/A   Mostly Cloudy
7:53 PM 35.1 °F 32.2 °F 21.0 °F 57% 30.19 in 10.0 mi North 3.5 mph - N/A   Mostly Cloudy
8:53 PM 34.0 °F 29.8 °F 21.9 °F 61% 30.19 in 10.0 mi NNW 4.6 mph - N/A   Overcast
9:53 PM 33.1 °F - 21.0 °F 61% 30.19 in 10.0 mi Calm Calm - N/A   Overcast
10:53 PM 30.0 °F 24.1 °F 21.0 °F 69% 30.18 in 10.0 mi WSW 5.8 mph - N/A   Overcast
11:53 PM 28.9 °F 23.9 °F 21.0 °F 72% 30.17 in 10.0 mi WSW 4.6 mph - N/A   Overcast